7 * 24
多渠道服务支持
TIANMU-1 20 是一颗由中国研制的遥感卫星,主要用于地球观测和环境监测。该卫星具备高分辨率成像能力,能够提供清晰的地表图像,广泛应用于资源调查、灾害预警、城市规划等领域。其先进传感器和稳定平台设计,提升了数据获取的精度和效率。TIANMU-1 20 的成功发射,进一步增强了中国在遥感技术领域的实力,为相关科学研究和实际应用提供了有力支持。
中国
(CN)
| 数据来源 | 国际轨道数据 |
| 星历时间: | 2025-10-28T22:58:11+0800 16小时前 查看轨道信息 |
| 半长轴: | 6860.335km |
| 偏心率: | 0.0008803 |
| 轨道倾角: | 97.431° |
| 近地点辐角 | 70.808° |
| 升交点赤经 | 53.200° |
| 平近点角 | 289.411° |
| 近地点: | 476.16km |
| 远地点: | 488.24km |
| 周期: | 94.249分钟 |
| 每日圈数: | 15.278644 |